TimeCDT,TemperatureF,Dew PointF,Humidity,Sea Level PressureIn,VisibilityMPH,Wind Direction,Wind SpeedMPH,Gust SpeedMPH,PrecipitationIn,Events,Conditions,WindDirDegrees,DateUTC
12:15 AM,42.8,39.7,89,30.33,10.0,Calm,Calm,-,N/A,,Clear,0,2013-10-26 05:15:00
12:35 AM,43.2,39.6,87,30.33,7.0,Calm,Calm,-,N/A,,Clear,0,2013-10-26 05:35:00
12:55 AM,42.6,39.4,88,30.33,7.0,Calm,Calm,-,N/A,,Clear,0,2013-10-26 05:55:00
1:15 AM,42.6,39.6,89,30.32,7.0,Calm,Calm,-,N/A,,Clear,0,2013-10-26 06:15:00
1:35 AM,42.8,39.4,88,30.31,7.0,Calm,Calm,-,N/A,,Clear,0,2013-10-26 06:35:00
1:55 AM,42.3,39.0,88,30.31,10.0,Calm,Calm,-,N/A,,Clear,0,2013-10-26 06:55:00
2:15 AM,42.1,39.2,90,30.30,7.0,Calm,Calm,-,N/A,,Clear,0,2013-10-26 07:15:00
2:35 AM,42.1,39.2,90,30.30,10.0,Calm,Calm,-,N/A,,Clear,0,2013-10-26 07:35:00
2:55 AM,41.7,38.8,89,30.29,10.0,Calm,Calm,-,N/A,,Clear,0,2013-10-26 07:55:00
3:15 AM,42.4,39.2,88,30.28,5.0,Calm,Calm,-,N/A,,Clear,0,2013-10-26 08:15:00
3:35 AM,42.4,39.0,88,30.28,7.0,Calm,Calm,-,N/A,,Clear,0,2013-10-26 08:35:00
3:55 AM,42.4,39.2,88,30.28,10.0,Calm,Calm,-,N/A,,Clear,0,2013-10-26 08:55:00
4:15 AM,42.8,39.7,89,30.28,10.0,Calm,Calm,-,N/A,,Clear,0,2013-10-26 09:15:00
4:35 AM,42.6,39.4,88,30.28,5.0,Calm,Calm,-,N/A,,Clear,0,2013-10-26 09:35:00
4:55 AM,43.0,39.0,86,30.28,5.0,Calm,Calm,-,N/A,,Clear,0,2013-10-26 09:55:00
5:15 AM,44.4,38.8,81,30.28,5.0,Calm,Calm,-,N/A,,Haze,0,2013-10-26 10:15:00
5:35 AM,43.0,39.6,88,30.28,10.0,Calm,Calm,-,N/A,,Clear,0,2013-10-26 10:35:00
5:55 AM,43.2,39.6,87,30.28,3.0,Calm,Calm,-,N/A,,Clear,0,2013-10-26 10:55:00
6:15 AM,44.6,39.2,81,30.28,5.0,Calm,Calm,-,N/A,,Haze,0,2013-10-26 11:15:00
6:35 AM,43.0,40.1,90,30.28,7.0,Calm,Calm,-,N/A,,Clear,0,2013-10-26 11:35:00
6:55 AM,43.0,39.6,88,30.28,5.0,Calm,Calm,-,N/A,,Clear,0,2013-10-26 11:55:00
7:15 AM,44.4,39.2,82,30.28,5.0,Calm,Calm,-,N/A,,Haze,0,2013-10-26 12:15:00
7:35 AM,44.6,39.7,83,30.28,3.0,Calm,Calm,-,N/A,,Haze,0,2013-10-26 12:35:00
7:55 AM,45.9,40.6,82,30.29,5.0,Calm,Calm,-,N/A,,Haze,0,2013-10-26 12:55:00
8:15 AM,48.0,41.0,77,30.29,10.0,Calm,Calm,-,N/A,,Clear,0,2013-10-26 13:15:00
8:35 AM,50.2,41.7,73,30.30,10.0,Calm,Calm,-,N/A,,Clear,0,2013-10-26 13:35:00
8:55 AM,52.2,42.3,69,30.30,10.0,Calm,Calm,-,N/A,,Clear,0,2013-10-26 13:55:00
9:15 AM,54.1,42.1,64,30.30,10.0,Calm,Calm,-,N/A,,Clear,0,2013-10-26 14:15:00
9:35 AM,55.6,41.2,58,30.30,10.0,Calm,Calm,-,N/A,,Clear,0,2013-10-26 14:35:00
9:55 AM,57.7,41.5,55,30.30,10.0,Calm,Calm,-,N/A,,Clear,0,2013-10-26 14:55:00
10:15 AM,60.3,40.6,48,30.30,10.0,SSW,4.6,-,N/A,,Clear,200,2013-10-26 15:15:00
10:35 AM,61.7,39.6,44,30.30,10.0,Calm,Calm,-,N/A,,Clear,0,2013-10-26 15:35:00
10:55 AM,63.5,39.6,41,30.30,10.0,Calm,Calm,-,N/A,,Clear,0,2013-10-26 15:55:00
11:15 AM,65.1,40.8,41,30.29,10.0,Calm,Calm,-,N/A,,Clear,0,2013-10-26 16:15:00
11:35 AM,65.7,41.5,41,30.29,10.0,Calm,Calm,-,N/A,,Clear,0,2013-10-26 16:35:00
11:55 AM,67.6,41.5,39,30.28,10.0,Calm,Calm,-,N/A,,Clear,0,2013-10-26 16:55:00
12:15 PM,68.5,42.8,39,30.27,10.0,Calm,Calm,-,N/A,,Clear,0,2013-10-26 17:15:00
12:35 PM,70.0,43.7,39,30.26,10.0,Calm,Calm,-,N/A,,Clear,0,2013-10-26 17:35:00
12:55 PM,70.7,42.4,36,30.25,10.0,Calm,Calm,-,N/A,,Clear,0,2013-10-26 17:55:00
1:15 PM,71.4,44.2,38,30.24,10.0,Calm,Calm,-,N/A,,Clear,0,2013-10-26 18:15:00
1:35 PM,72.3,44.4,37,30.23,10.0,Calm,Calm,-,N/A,,Clear,0,2013-10-26 18:35:00
1:55 PM,72.3,44.6,37,30.22,10.0,Calm,Calm,-,N/A,,Mostly Cloudy,0,2013-10-26 18:55:00
2:15 PM,73.2,45.7,37,30.21,10.0,Calm,Calm,-,N/A,,Mostly Cloudy,0,2013-10-26 19:15:00
2:35 PM,72.9,46.6,39,30.21,10.0,Calm,Calm,-,N/A,,Mostly Cloudy,0,2013-10-26 19:35:00
2:55 PM,72.5,47.3,41,30.20,10.0,Calm,Calm,-,N/A,,Mostly Cloudy,0,2013-10-26 19:55:00
3:15 PM,73.9,47.8,40,30.20,10.0,Calm,Calm,-,N/A,,Overcast,0,2013-10-26 20:15:00
3:35 PM,72.1,47.3,41,30.19,10.0,Calm,Calm,-,N/A,,Scattered Clouds,0,2013-10-26 20:35:00
3:55 PM,71.6,47.3,42,30.19,10.0,Calm,Calm,-,N/A,,Scattered Clouds,0,2013-10-26 20:55:00
4:15 PM,73.9,47.8,40,30.19,10.0,Calm,Calm,-,N/A,,Clear,0,2013-10-26 21:15:00
4:35 PM,73.2,47.7,40,30.18,10.0,Calm,Calm,-,N/A,,Scattered Clouds,0,2013-10-26 21:35:00
4:55 PM,72.9,48.4,42,30.18,10.0,Calm,Calm,-,N/A,,Clear,0,2013-10-26 21:55:00
5:15 PM,72.7,48.0,42,30.17,10.0,Calm,Calm,-,N/A,,Clear,0,2013-10-26 22:15:00
5:35 PM,72.3,48.9,43,30.17,10.0,Calm,Calm,-,N/A,,Clear,0,2013-10-26 22:35:00
5:55 PM,68.4,56.3,65,30.17,10.0,Calm,Calm,-,N/A,,Clear,0,2013-10-26 22:55:00
6:15 PM,63.7,55.8,75,30.16,10.0,Calm,Calm,-,N/A,,Clear,0,2013-10-26 23:15:00
6:35 PM,61.3,54.5,78,30.16,10.0,Calm,Calm,-,N/A,,Clear,0,2013-10-26 23:35:00
6:55 PM,59.0,54.0,83,30.17,10.0,Calm,Calm,-,N/A,,Clear,0,2013-10-26 23:55:00
7:15 PM,58.5,53.4,83,30.17,10.0,Calm,Calm,-,N/A,,Clear,0,2013-10-27 00:15:00
7:35 PM,57.2,52.7,85,30.17,10.0,Calm,Calm,-,N/A,,Clear,0,2013-10-27 00:35:00
7:55 PM,55.9,52.3,88,30.16,10.0,Calm,Calm,-,N/A,,Clear,0,2013-10-27 00:55:00
8:15 PM,55.0,51.4,88,30.16,10.0,Calm,Calm,-,N/A,,Clear,0,2013-10-27 01:15:00
8:35 PM,55.8,51.4,85,30.16,10.0,Calm,Calm,-,N/A,,Clear,0,2013-10-27 01:35:00
8:55 PM,54.3,51.1,89,30.16,10.0,Calm,Calm,-,N/A,,Clear,0,2013-10-27 01:55:00
9:15 PM,54.0,50.7,89,30.16,10.0,Calm,Calm,-,N/A,,Clear,0,2013-10-27 02:15:00
9:35 PM,54.1,50.7,88,30.15,10.0,Calm,Calm,-,N/A,,Clear,0,2013-10-27 02:35:00
9:55 PM,54.9,51.4,88,30.15,10.0,Calm,Calm,-,N/A,,Clear,0,2013-10-27 02:55:00
10:15 PM,52.7,49.5,89,30.15,10.0,Calm,Calm,-,N/A,,Clear,0,2013-10-27 03:15:00
10:35 PM,53.2,50.5,91,30.15,10.0,Calm,Calm,-,N/A,,Clear,0,2013-10-27 03:35:00
10:55 PM,53.2,50.4,90,30.15,10.0,Calm,Calm,-,N/A,,Clear,0,2013-10-27 03:55:00
11:15 PM,53.1,50.4,91,30.15,10.0,Calm,Calm,-,N/A,,Clear,0,2013-10-27 04:15:00
11:35 PM,53.6,50.9,91,30.14,10.0,Calm,Calm,-,N/A,,Clear,0,2013-10-27 04:35:00
11:55 PM,52.5,49.8,91,30.13,10.0,Calm,Calm,-,N/A,,Clear,0,2013-10-27 04:55:00